Terminal Aerodrome Forecast
Issued by NWS

Home | Current Version | Previous Version | Text Only | Print | Product List | Glossary On
Versions: 1 2 3 4 5 6 7 8 9 10 11 12 13 14 15 16 17 18 19 20 21
000
FTUS42 KTAE 221700 RRA
TAFDHN
TAF
KDHN 221741Z 2218/2318 02008KT P6SM VCTS SCT030CB BKN050
     FM230000 15004KT P6SM BKN250
     FM231500 23004KT P6SM SCT250=

USA.gov is the U.S. government's official web portal to all federal, state and local government web resources and services.